Weather in Yelgino

Russia / Kemerovo Oblast     55°54′58″N   84°51′27″E
temp.,
°C
wind,
m/s
gust,
m/s
humid.,
%
clouds,
%
prec.,
mm/h
press.,
hPa
HPBL,
m
19 april, mon
mon1901:00+2ssw71597100 1.3 1000739
04:00+2sw61398100 0.9 995766
07:00−7nw111789100 2.4 10021161
10:00−9nw101477100 0.4 10121105
13:00−7nw81058100 0.4 10181401
16:00−6nw7957100 0.0 10211758
19:00−6nw6863100 0.1 10231596
22:00−7nw586380 0.1 10241280
20 april, tue
tue2001:00−8wnw5869100 0.1 10241168
04:00−8wnw577485 0.1 1025897
07:00−9wnw587772 0.1 1025674
10:00−7wnw575969 0.0 1026963
13:00−4wnw564997 0.0 10251368
16:00−2wnw5644100 0.0 10241741
19:00−2wnw454696 0.0 10241468
22:00−4w36638 0.0 1024314
21 april, wed
wed2101:00−4ssw2462100 0.0 1023259
04:00−4ssw3662100 0.0 1022585
07:00−3ssw3662100 0.0 1022976
10:00−2ssw4558100 0.0 10221151
13:000s3454100 0.1 10231313
16:00+1sse2249100 0.1 10231380
19:00+1ne225699 0.2 1025834
22:00−2ene488397 0.2 1028306
22 april, thu
thu2201:00−3nne388260 0.2 1030272
04:00−4nne37845 0.0 1032272
07:00−4nne49805 0.0 1035332
10:000nne57545 0.0 10371156
13:00+2nne6751100 0.0 10381602
16:00+3nne5657100 0.1 10391503
19:00+2nne576298 0.3 1041972
22:00−2nne38795 0.0 1043192
23 april, fri
fri2301:00−2nne38825 0.0 1044221
04:00−3nne38825 0.0 1044226
07:00−3nne38795 0.0 1045258
10:00+1ne56585 0.0 1046918
13:00+4ne56495 0.0 10441351
16:00+5ne574972 0.0 10421695
19:00+4nne58635 0.0 1042481
22:000nne412815 0.0 1041262